sat.trackr.live / text

‹ back to catalog

STARLINK-36882

NORAD 67980 · 2026-038V

PAYLOAD ACTIVE UNKNOWN

§ Identity

Operator
Country
US
Launch date
2026-02-25
Launch site
AFWTR
Launch vehicle
Mass (kg)
RCS (m²)

Purposes: comms

External: N2YO · Heavens-Above · Gunter

§ Orbital elements

Epoch: 2026-09-19T23:01:25.135680Z

Period
93.91 min
Inclination
97.2865°
Eccentricity
0.0001853
Mean motion
15.33449879 rev/d
Perigee alt
464.3 km
Apogee alt
466.8 km
Semi-major
6,843.7 km
B*
4.6562e-4
RAAN
271.3541°
Arg perigee
90.6740°
Mean anomaly
269.4715°
Rev number
3,301

§ Raw data

STARLINK-368821 67980U 26038V   26262.95931870  .00014989  00000+0  46562-3 0  99952 67980  97.2865 271.3541 0001853  90.6740 269.4715 15.33449879 33019

JSON: /api/v1/satellites/67980 · /tle

For live sub-satellite position, see the globe view (requires WebGL).

§ Visibility from observer

Set your observer location to see the next 7 days of passes ≥ 10°. The values pass through the URL so the page stays shareable.

No JS? Fill the form by hand. The geolocation button needs JavaScript.